Location: Nairn
(57.5833°N, 3.8667°W)
Time: 03:34:53
(UTC+00:00)

Cosmos 2344 - Pass Details

Date: 07 August 2020
Orbit: 1247 x 2995 km, 63.3° (Epoch: 27 September)

Event Time Altitude Azimuth Distance (km) Brightness Sun altitude
Rises 01:40:02 0° 309° (NW) 4,494 6.7 -14.3°
Reaches altitude 10° 01:42:40 10° 306° (NW) 3,644 6.2 -14.2°
Maximum altitude 01:51:27 59° 230° (SW) 2,045 4.4 -13.8°
Drops below altitude 10° 02:03:32 10° 156° (SSE) 4,905 6.2 -13.1°
Sets 02:07:42 0° 153° (SSE) 6,146 6.8 -12.9°
